Location: Betzi
(47.2343°N, 9.5260°E)
Time: 16:12:12
(UTC+00:00)

Meteor 2-1 Rocket - Pass Details

Date: 27 May 2022
Orbit: 826 x 910 km, 81.3° (Epoch: 07 July)

Event Time Altitude Azimuth Distance (km) Brightness Sun altitude
Rises 02:36:26 0° 344° (NNW) 3,498 7.8 -8.4°
Reaches altitude 10° 02:38:58 10° 340° (NNW) 2,542 7.0 -8.1°
Maximum altitude 02:44:32 53° 266° (W) 1,060 4.5 -7.4°
Drops below altitude 10° 02:49:57 10° 191° (S) 2,469 6.2 -6.7°
Sets 02:52:23 0° 186° (S) 3,389 6.9 -6.4°
